Banff, Alberta

10:46 PM MST on November 17, 2017 (GMT -0700)
Banff

Weather History for CWZG - December, 2012

Change the Weather History Date:

Tuesday, December 25, 2012

  Actual Average Record
Temperature  
Mean Temperature -8 °F -  
Max Temperature 5 °F - - ()
Min Temperature -22 °F - - ()
Degree Days  
Heating Degree Days 74    
Moisture  
Dew Point -16 °F    
Average Humidity 75    
Maximum Humidity 83    
Minimum Humidity 61    
Precipitation  
Precipitation 0.03 in - - ()
Sea Level Pressure  
Sea Level Pressure 30.36 in    
Wind  
Wind Speed 1 mph ()    
Max Wind Speed 4 mph    
Max Gust Speed -    
T = Trace of Precipitation, MM = Missing Value Source: Averaged Metar Reports

Daily Weather History Graph

Daily Weather History Graph

Search for Another Location

Airport or City:

Trip Planner

Search our weather history database for the weather conditions in past years. The results will help you decide how hot, cold, wet, or windy it might be!

Date:

Astronomy

Dec. 25, 2012 Rise Set
Actual Time 8:45 AM MST 4:39 PM MST
Civil Twilight 8:05 AM MST 5:19 PM MST
Nautical Twilight 7:23 AM MST 6:02 PM MST
Astronomical Twilight 6:42 AM MST 6:42 PM MST
Moon 2:55 PM MST (12/25) 6:16 AM MST (12/25)
Length of Visible Light 9h 13m
Length of Day
7h 53m
Waxing Gibbous, 94% of the Moon is Illuminated
Dec 25
Waxing Gibbous
Dec 28
Full
Jan 4
Last Quarter
Jan 11
New
Jan 18
First Quarter

Hourly Weather History & Observations

Time (MST) Temp. Windchill Dew Point Humidity Pressure Visibility Wind Dir Wind Speed Gust Speed Precip Events Conditions
12:00 AM -17.3 °F - -22.7 °F 76% 30.50 in - Calm Calm - N/A   Unknown
1:00 AM -17.9 °F - -23.6 °F 75% 30.49 in - NW 1.2 mph - N/A   Unknown
2:00 AM -18.4 °F - -24.2 °F 75% 30.48 in - WNW 1.2 mph - N/A   Unknown
3:00 AM -15.3 °F - -20.2 °F 79% 30.49 in - Calm Calm - N/A   Unknown
4:00 AM -20.9 °F - -27.0 °F 73% 30.51 in - NNW 1.2 mph - N/A   Unknown
5:00 AM -18.4 °F - -23.6 °F 77% 30.50 in - SSW 2.3 mph - N/A   Unknown
6:00 AM -21.5 °F - -27.6 °F 73% 30.51 in - NNE 1.2 mph - N/A   Unknown
7:00 AM -22.7 °F - -29.0 °F 72% 30.50 in - North 1.2 mph - N/A   Unknown
8:00 AM -21.6 °F - -27.6 °F 74% 30.48 in - Calm Calm - N/A   Unknown
9:00 AM -18.9 °F - -25.2 °F 73% 30.46 in - NW 1.2 mph - N/A   Unknown
10:00 AM -15.5 °F - -21.1 °F 76% 30.45 in - NNW 1.2 mph - N/A   Unknown
11:00 AM -9.4 °F - -15.9 °F 73% 30.42 in - East 1.2 mph - 0.02 in   Unknown
12:00 PM -4.7 °F -13.2 °F -13.2 °F 67% 30.36 in - SW 3.5 mph - N/A   Unknown
1:00 PM 0.7 °F - -9.9 °F 61% 30.30 in - SW 2.3 mph - N/A   Unknown
2:00 PM 3.9 °F - -6.3 °F 62% 30.25 in - SW 2.3 mph - N/A   Unknown
3:00 PM 5.7 °F -1.3 °F -3.8 °F 65% 30.23 in - SW 3.5 mph - N/A   Unknown
4:00 PM 1.8 °F - -4.5 °F 75% 30.23 in - WSW 1.2 mph - N/A   Unknown
5:00 PM -3.6 °F - -7.8 °F 82% 30.26 in - Calm Calm - N/A   Unknown
6:00 PM -6.5 °F - -10.7 °F 82% 30.27 in - Calm Calm - N/A   Unknown
7:00 PM -6.9 °F - -11.2 °F 81% 30.25 in - NE 1.2 mph - N/A   Unknown
8:00 PM -5.1 °F - -9.4 °F 82% 30.21 in - Calm Calm - N/A   Unknown
9:00 PM -2.9 °F - -7.2 °F 82% 30.17 in - Calm Calm - 0.01 in   Unknown
10:00 PM -1.1 °F - -5.3 °F 83% 30.13 in - Calm Calm - N/A   Unknown
11:00 PM 0.1 °F - -4.0 °F 83% 30.09 in - East 1.2 mph - N/A   Unknown